Retour au catalogue

FENGYUN 1C DEB

ActifSSO
NORAD 29849·DEBRIS·🇨🇳 China

Lancé May 10, 1999 depuis Taiyuan Satellite Launch Center

Loading…

Prochains Passages (prochaines 24 heures)

TLE

FraisSource: Space-Track

Époque: Sep 14, 2026, 11:14 UTC

1 29849U 99025ET  26257.46844015  .00001196  00000-0  73919-3 0  9990
2 29849  99.0022 344.9580 0079261 356.0272  62.3829 14.05740159  2434

Suivez FENGYUN 1C DEB en temps réel avec AllMySat

Download on the App Store